Overview Statistics Trail Chart Weather Telemetry Raw packets
 

This is the latest recevied weather packets stored in our database for station/object K0APR. If no packets are shown the sender has not sent any weather packets the latest 10 day(s).

<< 41 42 43 44 45 46 47 >>
Time Temp. Humidity Pressure Rain* Wind** Luminosity Snow
1788382291 30° C 67% 1010.9 hPa 0 mm - 110 W/m² -
1788381986 30° C 68% 1010.5 hPa 0 mm - 457 W/m² -
1788381680 30° C 69% 1010.9 hPa 0 mm - 468 W/m² -
1788381376 29.44° C 69% 1010.9 hPa 0 mm - 96 W/m² -
1788381075 30.56° C 66% 1010.9 hPa 0 mm - 70 W/m² -
1788380772 30° C 67% 1010.9 hPa 0 mm - 72 W/m² -
1788380468 29.44° C 68% 1010.9 hPa 0 mm - 520 W/m² -
1788380163 29.44° C 68% 1010.5 hPa 0 mm - 464 W/m² -
1788379862 29.44° C 68% 1010.9 hPa 0 mm - 530 W/m² -
1788379557 29.44° C 68% 1010.9 hPa 0 mm - 509 W/m² -
1788379254 28.89° C 68% 1010.9 hPa 0 mm - 518 W/m² -
1788378949 28.89° C 68% 1011.2 hPa 0 mm - 532 W/m² -
1788378648 28.89° C 70% 1011.2 hPa 0 mm - 544 W/m² -
1788378348 28.89° C 69% 1011.2 hPa 0 mm - 547 W/m² -
1788378043 28.89° C 68% 1011.2 hPa 0 mm - 560 W/m² -
1788377740 28.89° C 69% 1011.5 hPa 0 mm - 558 W/m² -
1788377438 27.78° C 69% 1011.5 hPa 0 mm - 556 W/m² -
1788377137 28.33° C 68% 1011.5 hPa 0 mm - 553 W/m² -
1788376836 27.78° C 70% 1011.5 hPa 0 mm - 554 W/m² -
1788376532 27.78° C 70% 1011.5 hPa 0 mm - 546 W/m² -
1788376226 27.78° C 70% 1011.5 hPa 0 mm - 546 W/m² -
1788375922 27.78° C 69% 1012 hPa 0 mm - 563 W/m² -
1788375617 27.78° C 69% 1012 hPa 0 mm - 561 W/m² -
1788375313 27.22° C 70% 1012 hPa 0 mm - 553 W/m² -
1788375009 27.78° C 69% 1012 hPa 0 mm - 570 W/m² -

* Rain latest hour (hover to see other rain measurements)
** Current wind speed in m/s (hover to see current wind gust speed)